Location: Monfort
(47.1967°N, 0.2115°W)
Time: 04:33:25
(UTC+00:00)

FALCON 9 DEB - Pass Details

Date: 24 October 2020
Orbit: 381 x 399 km, 53.0° (Epoch: 01 December)

Event Time Altitude Azimuth Distance (km) Brightness Sun altitude
Rises 18:03:00 0° 207° (SSW) 2,315 7.3 -11.9°
Reaches altitude 10° 18:05:19 10° 192° (SSW) 1,457 6.0 -12.3°
Maximum altitude 18:07:58 23° 137° (SE) 910 4.4 -12.7°
Enters shadow 18:08:49 21° 113° (ESE) 980 4.4 -12.9°
